Temp
-21 -21 -20 -20 -20 -21 -20 -20 -20 -20 -20 -19 -19 -19 -18 -18 -18 -17 -17 -17 -17 -17 -16 -16 -16 -16 -15 -15 -15 -14 -15 -16 -13 -14 -13 -12 -11 -11 -10 -10 -10 -11 -11 -10 -10 -10 -10 -9 -10 -10 -10 -10 -10 -10
-21 -21 -21 -20 -20 -21 -21 -21 -20 -20 -20 -19 -19 -19 -18 -18 -18 -18 -17 -17 -17 -17 -17 -17 -17 -17 -16 -16 -16 -16 -15 -16 -16 -15 -15 -14 -13 -12 -11 -11 -11 -11 -10 -10 -11 -10 -9 -10 -10 -10 -10 -10 -10 -10
-21 -21 -21 -21 -21 -21 -21 -21 -20 -20 -20 -19 -19 -19 -18 -18 -18 -18 -17 -17 -17 -17 -17 -18 -17 -17 -16 -16 -16 -16 -17 -16 -16 -15 -15 -14 -13 -13 -13 -12 -12 -12 -11 -11 -11 -10 -9 -9 -10 -9 -10 -10 -11 -10
-22 -22 -21 -21 -21 -21 -21 -21 -20 -20 -20 -20 -19 -19 -18 -18 -18 -18 -17 -17 -17 -17 -17 -17 -17 -18 -17 -17 -17 -17 -17 -17 -17 -16 -16 -16 -15 -14 -14 -13 -12 -12 -12 -11 -11 -11 -10 -10 -9 -9 -10 -10 -10 -10
-22 -22 -22 -22 -21 -21 -21 -21 -21 -20 -20 -20 -20 -19 -19 -18 -18 -18 -18 -17 -17 -17 -17 -17 -18 -18 -18 -18 -18 -18 -17 -16 -17 -16 -16 -16 -16 -15 -14 -14 -13 -13 -12 -12 -12 -11 -11 -10 -10 -10 -10 -10 -11 -11
-23 -23 -22 -22 -22 -21 -21 -21 -21 -20 -20 -20 -20 -19 -19 -18 -18 -18 -18 -18 -18 -17 -17 -17 -18 -18 -19 -19 -19 -19 -18 -17 -18 -17 -16 -16 -17 -15 -15 -15 -14 -13 -13 -13 -12 -12 -12 -11 -11 -11 -11 -11 -11 -12
-24 -23 -23 -23 -22 -22 -21 -21 -21 -21 -20 -20 -20 -20 -19 -19 -18 -18 -18 -18 -18 -18 -18 -18 -18 -18 -19 -19 -19 -19 -19 -19 -19 -18 -16 -16 -16 -16 -15 -15 -15 -14 -14 -13 -13 -13 -12 -12 -12 -12 -12 -11 -11 -11
-24 -24 -23 -23 -22 -22 -22 -21 -21 -21 -20 -20 -20 -20 -19 -19 -19 -18 -18 -18 -18 -18 -18 -18 -18 -18 -19 -19 -19 -19 -19 -19 -19 -19 -18 -17 -17 -16 -16 -15 -15 -14 -14 -14 -14 -13 -13 -13 -13 -13 -12 -12 -12 -12
-24 -24 -24 -23 -23 -22 -22 -21 -21 -21 -20 -20 -20 -20 -19 -19 -19 -19 -18 -18 -18 -18 -18 -18 -18 -19 -20 -19 -20 -20 -20 -19 -19 -18 -19 -18 -17 -16 -15 -16 -16 -15 -14 -14 -14 -14 -13 -13 -13 -13 -12 -12 -13 -13
-25 -24 -24 -24 -23 -22 -22 -22 -21 -21 -20 -20 -20 -20 -19 -19 -19 -19 -18 -18 -18 -18 -18 -18 -18 -19 -19 -19 -19 -19 -19 -19 -19 -19 -19 -18 -17 -17 -16 -16 -15 -15 -14 -14 -13 -14 -13 -13 -13 -14 -13 -13 -13 -13
-25 -24 -24 -24 -23 -23 -22 -22 -21 -21 -20 -20 -19 -19 -19 -19 -19 -18 -18 -18 -18 -18 -18 -18 -19 -19 -19 -19 -19 -19 -19 -19 -19 -18 -18 -17 -17 -17 -16 -16 -16 -15 -14 -14 -13 -13 -13 -13 -14 -14 -14 -14 -14 -14
-25 -25 -24 -24 -24 -23 -22 -22 -21 -21 -21 -20 -20 -19 -19 -19 -19 -19 -19 -18 -18 -18 -18 -19 -19 -19 -19 -19 -19 -19 -19 -19 -19 -18 -18 -18 -17 -17 -17 -16 -16 -15 -14 -14 -14 -14 -13 -13 -14 -14 -15 -14 -14 -15
-25 -25 -25 -24 -24 -23 -23 -22 -21 -21 -21 -20 -20 -20 -19 -19 -19 -19 -19 -18 -19 -18 -19 -19 -19 -19 -19 -19 -19 -19 -19 -18 -18 -18 -17 -17 -17 -17 -16 -16 -17 -17 -16 -16 -15 -15 -14 -15 -15 -15 -15 -15 -15 -15
-25 -25 -25 -24 -24 -23 -23 -22 -21 -21 -21 -20 -20 -20 -19 -19 -19 -19 -18 -18 -19 -19 -19 -19 -19 -19 -19 -19 -19 -19 -18 -18 -18 -17 -17 -17 -17 -17 -17 -17 -17 -17 -17 -17 -17 -16 -16 -16 -16 -16 -15 -16 -15 -15
-25 -25 -25 -24 -24 -23 -23 -22 -21 -21 -21 -20 -20 -20 -19 -19 -19 -19 -18 -19 -19 -18 -19 -19 -19 -19 -19 -19 -18 -18 -18 -18 -17 -17 -16 -16 -17 -16 -16 -16 -17 -17 -17 -17 -17 -17 -16 -16 -15 -15 -16 -16 -16 -16
-26 -25 -25 -24 -24 -23 -23 -22 -22 -21 -21 -20 -20 -20 -19 -19 -19 -19 -19 -19 -19 -18 -18 -19 -19 -18 -18 -18 -18 -18 -18 -17 -17 -17 -17 -16 -16 -16 -16 -16 -16 -16 -17 -17 -18 -17 -16 -16 -15 -15 -15 -15 -15 -15
-26 -26 -25 -24 -24 -23 -23 -22 -22 -21 -20 -20 -20 -19 -19 -19 -19 -19 -19 -18 -19 -19 -19 -19 -19 -18 -18 -18 -18 -18 -17 -17 -17 -16 -16 -16 -15 -16 -16 -16 -16 -16 -16 -16 -17 -17 -16 -16 -15 -15 -15 -15 -15 -15
-25 -25 -25 -25 -24 -23 -23 -22 -21 -21 -20 -20 -19 -19 -19 -19 -19 -19 -19 -19 -18 -18 -18 -18 -18 -18 -18 -18 -17 -17 -17 -16 -16 -16 -16 -16 -15 -16 -16 -16 -16 -16 -16 -15 -16 -16 -16 -16 -16 -16 -16 -16 -16 -16
-26 -25 -25 -24 -24 -23 -23 -22 -21 -20 -20 -20 -20 -20 -19 -19 -19 -19 -19 -18 -18 -18 -18 -18 -18 -17 -17 -17 -17 -17 -17 -16 -16 -16 -16 -16 -15 -15 -15 -15 -16 -16 -16 -16 -15 -15 -15 -15 -15 -16 -16 -16 -15 -16
-26 -26 -25 -24 -24 -23 -22 -21 -21 -20 -20 -20 -20 -19 -19 -19 -18 -18 -18 -18 -18 -18 -18 -18 -17 -17 -17 -17 -17 -16 -16 -16 -16 -16 -16 -16 -16 -15 -15 -16 -16 -16 -16 -16 -15 -15 -15 -15 -15 -15 -16 -16 -16 -16
-26 -25 -24 -24 -23 -22 -21 -21 -21 -20 -20 -19 -19 -19 -19 -19 -18 -18 -18 -18 -18 -18 -17 -17 -17 -16 -16 -16 -16 -16 -16 -16 -16 -15 -15 -15 -15 -16 -16 -15 -15 -16 -16 -16 -16 -16 -16 -16 -16 -16 -16 -16 -16 -16
-25 -25 -24 -23 -22 -22 -22 -21 -20 -20 -19 -19 -19 -19 -19 -18 -18 -18 -18 -17 -17 -17 -17 -16 -16 -16 -16 -16 -16 -16 -16 -16 -15 -15 -15 -15 -15 -15 -15 -15 -15 -15 -15 -15 -15 -16 -16 -16 -16 -16 -16 -16 -16 -16
-24 -24 -23 -22 -22 -21 -21 -20 -20 -20 -19 -19 -18 -18 -18 -18 -18 -17 -17 -17 -16 -16 -16 -16 -16 -16 -16 -16 -16 -16 -15 -15 -15 -15 -15 -15 -15 -15 -15 -15 -15 -15 -15 -16 -16 -16 -16 -16 -16 -16 -16 -16 -17 -17
-23 -23 -23 -22 -21 -21 -20 -20 -19 -19 -19 -19 -18 -18 -18 -17 -17 -17 -17 -16 -16 -16 -16 -16 -16 -16 -15 -15 -16 -16 -15 -15 -15 -15 -15 -15 -15 -15 -15 -15 -15 -16 -16 -16 -16 -16 -16 -16 -16 -16 -17 -17 -17 -17
-22 -22 -21 -21 -20 -20 -20 -19 -19 -19 -19 -18 -18 -18 -18 -17 -17 -17 -16 -16 -16 -16 -16 -16 -16 -16 -16 -16 -16 -16 -16 -16 -15 -15 -15 -15 -15 -15 -16 -16 -16 -16 -16 -16 -16 -16 -17 -17 -17 -17 -17 -17 -17 -17
-21 -21 -21 -20 -20 -19 -19 -19 -19 -19 -19 -18 -18 -18 -17 -17 -17 -17 -17 -16 -16 -16 -16 -16 -16 -16 -16 -16 -16 -16 -16 -16 -16 -16 -16 -16 -16 -16 -16 -16 -16 -16 -16 -16 -16 -16 -16 -16 -16 -16 -16 -17 -17 -17
-21 -20 -20 -20 -19 -19 -19 -19 -19 -18 -18 -18 -18 -17 -17 -17 -17 -17 -17 -17 -17 -16 -16 -16 -16 -16 -16 -16 -16 -16 -16 -16 -17 -17 -17 -16 -16 -16 -16 -16 -16 -16 -16 -16 -16 -17 -17 -17 -17 -17 -17 -17 -17 -17
-20 -20 -20 -19 -19 -19 -19 -18 -18 -18 -18 -18 -18 -18 -17 -17 -17 -17 -17 -17 -17 -17 -17 -16 -16 -16 -16 -16 -16 -17 -17 -17 -17 -17 -17 -17 -17 -17 -17 -17 -17 -17 -17 -17 -17 -17 -17 -17 -17 -18 -18 -18 -18 -18
-20 -20 -19 -19 -18 -18 -18 -18 -18 -18 -18 -18 -18 -18 -17 -17 -17 -17 -17 -17 -17 -17 -17 -17 -17 -17 -17 -17 -17 -17 -17 -17 -17 -17 -17 -17 -17 -17 -17 -17 -17 -17 -17 -17 -17 -18 -18 -18 -18 -18 -18 -18 -18 -18
-19 -19 -19 -18 -18 -17 -18 -18 -18 -18 -18 -18 -18 -17 -17 -17 -17 -17 -17 -17 -17 -17 -17 -17 -17 -17 -17 -17 -17 -17 -17 -18 -18 -18 -18 -18 -18 -18 -17 -17 -17 -17 -18 -18 -18 -18 -18 -18 -18 -18 -18 -18 -19 -19
-19 -19 -19 -19 -18 -18 -18 -18 -18 -18 -18 -18 -18 -18 -18 -18 -17 -18 -18 -18 -17 -17 -17 -17 -17 -17 -17 -17 -17 -17 -17 -17 -18 -18 -18 -18 -18 -18 -18 -17 -18 -18 -18 -18 -18 -19 -19 -18 -18 -18 -18 -19 -19 -19
-19 -19 -19 -19 -19 -19 -18 -18 -18 -18 -18 -18 -18 -18 -18 -18 -18 -18 -18 -18 -18 -18 -18 -17 -17 -18 -18 -18 -18 -18 -18 -18 -18 -18 -18 -18 -18 -18 -18 -18 -18 -19 -19 -19 -18 -18 -18 -18 -18 -19 -19 -19 -19 -19
-19 -19 -19 -19 -19 -19 -18 -19 -19 -19 -19 -19 -19 -18 -18 -18 -18 -18 -18 -18 -18 -18 -18 -18 -18 -18 -18 -18 -18 -18 -18 -18 -19 -19 -19 -19 -18 -18 -19 -19 -19 -19 -19 -19 -19 -19 -19 -19 -19 -19 -19 -19 -20 -20
Height
5642 5643 5645 5647 5650 5653 5656 5657 5659 5661 5663 5665 5667 5668 5669 5671 5671 5673 5674 5675 5676 5677 5680 5682 5684 5686 5690 5696 5701 5706 5714 5716 5723 5731 5737 5745 5754 5760 5766 5771 5776 5780 5782 5785 5788 5790 5793 5799 5804 5807 5810 5811 5814 5816
5633 5636 5638 5640 5643 5646 5649 5652 5654 5656 5659 5661 5662 5664 5666 5667 5668 5669 5670 5671 5672 5672 5674 5675 5676 5677 5679 5684 5691 5695 5700 5706 5711 5718 5726 5734 5742 5748 5754 5760 5764 5770 5775 5778 5780 5781 5785 5792 5794 5797 5801 5805 5807 5810
5625 5627 5630 5632 5636 5639 5642 5645 5648 5651 5654 5656 5658 5660 5662 5663 5665 5667 5667 5668 5668 5668 5669 5669 5670 5670 5671 5674 5679 5685 5689 5694 5700 5708 5715 5723 5729 5738 5743 5751 5754 5758 5765 5769 5773 5773 5778 5784 5786 5791 5793 5797 5800 5804
5616 5619 5622 5626 5629 5632 5635 5639 5642 5646 5649 5652 5654 5657 5659 5660 5662 5663 5664 5665 5665 5665 5664 5664 5663 5663 5662 5664 5670 5674 5679 5687 5692 5700 5706 5710 5718 5725 5731 5739 5747 5752 5756 5761 5766 5768 5772 5775 5778 5784 5787 5788 5790 5793
5608 5611 5615 5618 5622 5626 5629 5632 5637 5640 5644 5647 5650 5653 5655 5657 5659 5660 5661 5662 5662 5663 5661 5659 5658 5656 5656 5657 5660 5665 5671 5675 5682 5689 5697 5702 5708 5714 5721 5729 5737 5743 5748 5752 5757 5761 5763 5766 5770 5774 5779 5784 5785 5785
5601 5604 5607 5611 5615 5619 5624 5627 5631 5635 5639 5643 5646 5649 5652 5654 5656 5657 5658 5659 5659 5658 5657 5656 5654 5653 5653 5653 5654 5658 5663 5667 5673 5679 5687 5695 5700 5706 5711 5718 5727 5734 5739 5744 5749 5752 5756 5758 5761 5763 5767 5773 5776 5778
5593 5596 5600 5604 5608 5613 5617 5622 5625 5630 5634 5638 5642 5645 5648 5651 5653 5655 5656 5656 5655 5655 5654 5652 5650 5649 5649 5649 5650 5651 5656 5662 5666 5671 5681 5687 5687 5692 5700 5708 5716 5723 5730 5734 5739 5743 5747 5747 5750 5754 5759 5761 5765 5767
5586 5589 5592 5597 5601 5606 5611 5616 5620 5625 5629 5633 5637 5640 5644 5647 5649 5651 5652 5652 5652 5652 5651 5649 5647 5647 5647 5647 5647 5648 5651 5655 5661 5667 5672 5676 5681 5686 5694 5704 5708 5713 5720 5724 5728 5732 5737 5739 5742 5746 5749 5751 5755 5759
5579 5582 5586 5590 5594 5600 5605 5610 5615 5619 5624 5628 5632 5636 5640 5643 5645 5647 5648 5649 5649 5650 5648 5647 5645 5645 5647 5647 5647 5647 5648 5650 5655 5662 5666 5671 5678 5684 5692 5697 5697 5700 5706 5713 5717 5720 5727 5730 5734 5738 5740 5744 5747 5750
5573 5576 5580 5583 5588 5594 5599 5605 5609 5614 5620 5624 5629 5633 5636 5638 5641 5644 5645 5646 5646 5646 5646 5646 5645 5645 5645 5646 5645 5647 5650 5652 5656 5659 5661 5669 5675 5678 5682 5686 5689 5692 5695 5700 5707 5713 5716 5720 5724 5728 5731 5734 5737 5740
5565 5570 5574 5578 5582 5588 5594 5600 5606 5610 5615 5619 5624 5629 5632 5635 5638 5640 5641 5643 5643 5644 5644 5643 5643 5643 5644 5645 5645 5646 5648 5650 5653 5656 5661 5664 5667 5670 5672 5676 5679 5682 5685 5689 5695 5701 5704 5708 5712 5718 5721 5723 5728 5730
5558 5564 5569 5572 5576 5582 5589 5595 5601 5607 5611 5616 5621 5625 5629 5632 5635 5637 5638 5640 5641 5642 5642 5643 5643 5643 5644 5644 5644 5645 5645 5648 5649 5653 5656 5658 5660 5662 5663 5666 5668 5671 5673 5678 5681 5687 5693 5697 5702 5708 5712 5715 5718 5723
5553 5558 5564 5568 5572 5578 5584 5591 5597 5604 5609 5614 5618 5623 5626 5630 5632 5634 5636 5638 5639 5640 5640 5642 5643 5643 5643 5643 5643 5644 5645 5647 5649 5651 5653 5655 5657 5658 5659 5662 5664 5666 5668 5671 5674 5676 5681 5687 5693 5697 5701 5706 5709 5714
5548 5555 5560 5565 5569 5575 5581 5588 5595 5601 5607 5612 5616 5620 5623 5626 5629 5632 5634 5637 5638 5638 5640 5641 5642 5642 5643 5643 5643 5644 5646 5647 5649 5650 5652 5655 5656 5656 5658 5658 5658 5659 5661 5664 5668 5671 5673 5681 5686 5691 5695 5697 5702 5706
5544 5551 5557 5563 5568 5573 5579 5586 5593 5600 5605 5610 5614 5618 5622 5625 5629 5631 5633 5634 5636 5637 5639 5640 5641 5641 5641 5643 5644 5645 5646 5646 5647 5650 5651 5651 5653 5654 5655 5655 5655 5656 5657 5659 5664 5666 5670 5676 5681 5685 5689 5693 5696 5702
5542 5550 5555 5561 5567 5573 5579 5586 5593 5599 5604 5608 5612 5616 5621 5625 5628 5630 5632 5634 5635 5636 5638 5639 5639 5639 5640 5641 5643 5644 5645 5646 5647 5646 5647 5649 5651 5651 5651 5651 5652 5655 5655 5658 5661 5667 5670 5673 5673 5682 5685 5688 5691 5694
5542 5548 5554 5560 5566 5573 5579 5586 5592 5598 5604 5608 5612 5617 5621 5624 5628 5630 5631 5633 5635 5636 5637 5637 5638 5638 5640 5641 5643 5644 5646 5646 5645 5646 5646 5647 5648 5648 5650 5650 5651 5653 5655 5658 5663 5668 5671 5674 5677 5680 5683 5685 5687 5689
5542 5549 5554 5560 5567 5573 5580 5586 5593 5599 5604 5609 5613 5618 5622 5625 5627 5629 5631 5633 5635 5635 5636 5636 5637 5639 5641 5642 5643 5645 5644 5644 5644 5644 5644 5645 5645 5646 5646 5648 5649 5652 5654 5659 5662 5667 5670 5673 5675 5678 5681 5682 5684 5685
5545 5551 5555 5562 5568 5575 5582 5588 5595 5601 5607 5612 5617 5620 5622 5626 5628 5630 5632 5633 5634 5635 5636 5637 5638 5640 5641 5642 5643 5644 5644 5643 5643 5644 5644 5644 5644 5644 5646 5647 5650 5652 5654 5658 5662 5666 5669 5672 5674 5675 5677 5677 5677 5679
5549 5553 5559 5564 5571 5578 5585 5592 5598 5605 5610 5615 5618 5621 5624 5626 5629 5631 5632 5633 5634 5635 5636 5636 5638 5639 5640 5642 5643 5643 5644 5644 5644 5644 5643 5644 5644 5645 5646 5647 5648 5651 5654 5657 5662 5665 5667 5669 5670 5671 5671 5672 5673 5674
5554 5559 5564 5570 5577 5584 5590 5596 5603 5609 5613 5616 5620 5623 5625 5628 5630 5632 5632 5633 5634 5634 5634 5635 5636 5637 5639 5641 5643 5643 5642 5644 5644 5645 5644 5644 5644 5644 5646 5648 5650 5652 5654 5656 5659 5662 5664 5666 5666 5668 5668 5669 5670 5671
5561 5566 5572 5578 5584 5589 5596 5603 5608 5613 5617 5620 5623 5626 5628 5630 5631 5632 5633 5633 5633 5633 5634 5635 5636 5637 5640 5641 5643 5645 5645 5646 5646 5646 5647 5646 5646 5646 5647 5650 5653 5655 5656 5658 5660 5662 5663 5664 5665 5666 5667 5668 5670 5672
5570 5575 5580 5585 5592 5598 5604 5608 5612 5616 5620 5624 5627 5629 5631 5632 5633 5634 5634 5633 5634 5635 5637 5638 5639 5641 5643 5644 5646 5646 5647 5648 5649 5650 5650 5649 5649 5650 5652 5654 5655 5657 5659 5660 5662 5663 5665 5667 5668 5670 5672 5673 5675 5676
5580 5584 5589 5594 5600 5605 5609 5614 5618 5621 5624 5628 5630 5632 5633 5634 5635 5637 5637 5638 5638 5640 5641 5643 5644 5645 5646 5646 5647 5650 5651 5653 5654 5655 5656 5657 5658 5658 5659 5661 5662 5663 5665 5667 5668 5670 5671 5673 5674 5675 5677 5678 5678 5679
5592 5596 5600 5604 5608 5613 5617 5620 5623 5626 5629 5632 5634 5636 5637 5638 5641 5641 5642 5643 5645 5645 5647 5649 5650 5650 5651 5652 5653 5655 5656 5658 5659 5662 5662 5663 5665 5666 5667 5668 5669 5670 5671 5672 5673 5675 5675 5676 5677 5678 5678 5679 5678 5678
5602 5606 5611 5613 5617 5620 5623 5626 5628 5631 5634 5637 5639 5641 5642 5644 5645 5645 5648 5650 5651 5652 5654 5655 5657 5658 5660 5660 5661 5662 5664 5665 5666 5668 5668 5669 5670 5671 5672 5673 5673 5675 5675 5676 5677 5677 5677 5677 5677 5677 5676 5675 5674 5672
5613 5616 5619 5622 5625 5628 5630 5632 5634 5636 5639 5642 5645 5647 5649 5650 5650 5652 5655 5658 5658 5659 5660 5662 5663 5664 5666 5667 5668 5669 5670 5670 5671 5673 5674 5675 5675 5676 5677 5677 5677 5678 5678 5678 5678 5678 5677 5677 5676 5674 5673 5671 5670 5668
5623 5625 5628 5630 5632 5633 5636 5638 5640 5642 5645 5648 5650 5653 5655 5657 5657 5660 5662 5664 5665 5666 5667 5668 5669 5670 5672 5673 5674 5675 5676 5676 5677 5678 5679 5679 5679 5680 5680 5680 5680 5679 5679 5679 5678 5677 5675 5674 5672 5671 5669 5668 5666 5663
5632 5633 5635 5636 5638 5640 5642 5645 5647 5648 5651 5653 5655 5658 5661 5663 5665 5666 5668 5669 5671 5672 5673 5673 5674 5675 5676 5677 5677 5678 5679 5680 5680 5681 5681 5682 5682 5682 5681 5680 5679 5679 5678 5676 5675 5673 5672 5671 5669 5667 5666 5664 5662 5659
5640 5641 5642 5643 5644 5646 5647 5649 5651 5654 5657 5659 5662 5665 5667 5668 5670 5671 5672 5673 5675 5676 5677 5677 5678 5678 5679 5680 5680 5681 5681 5682 5682 5682 5682 5682 5681 5680 5680 5679 5678 5677 5676 5675 5673 5672 5671 5669 5668 5666 5663 5661 5657 5654
5648 5648 5649 5650 5651 5652 5654 5656 5658 5661 5663 5665 5666 5668 5670 5672 5673 5674 5676 5678 5679 5679 5680 5680 5680 5681 5681 5681 5682 5682 5682 5682 5681 5681 5681 5680 5679 5677 5677 5677 5676 5675 5673 5672 5671 5670 5669 5667 5665 5663 5660 5656 5652 5647
5654 5654 5655 5657 5658 5659 5660 5662 5663 5665 5666 5668 5669 5671 5673 5673 5675 5677 5678 5679 5680 5680 5680 5680 5681 5681 5681 5681 5681 5680 5680 5679 5678 5678 5677 5675 5675 5675 5674 5674 5673 5673 5671 5670 5669 5668 5665 5663 5661 5658 5654 5650 5646 5641
5658 5659 5660 5661 5663 5665 5665 5667 5668 5669 5670 5672 5673 5674 5675 5676 5676 5678 5678 5678 5679 5679 5679 5679 5679 5679 5679 5678 5677 5676 5674 5674 5672 5671 5671 5670 5671 5671 5671 5671 5670 5669 5669 5668 5666 5664 5662 5658 5655 5652 5648 5644 5640 5634
Wind_Speed
20 19 20 21 23 22 20 16 16 14 15 13 12 12 9 6 5 8 7 9 12 16 19 22 28 32 39 38 41 47 46 49 54 54 54 51 51 49 46 44 43 42 44 43 39 36 33 26 28 36 36 38 36 39
21 20 20 20 21 23 21 18 17 15 14 13 12 11 10 8 5 3 6 5 6 12 15 18 23 27 33 38 40 43 48 50 53 52 53 50 50 49 48 48 45 42 45 46 46 43 38 31 31 30 34 43 36 33
22 21 20 20 20 21 22 21 18 16 15 14 13 11 9 8 7 3 2 5 7 6 7 12 18 24 30 35 39 42 43 48 50 49 46 46 52 50 49 47 47 45 43 42 42 43 40 36 36 33 32 31 29 32
23 22 22 20 20 19 22 22 20 18 17 16 14 12 10 9 9 6 2 1 3 5 7 9 12 13 20 26 35 40 40 39 40 37 42 44 44 48 53 51 47 46 45 45 42 41 38 38 38 37 36 37 34 35
22 23 23 22 20 20 21 22 22 19 18 18 17 15 12 9 7 7 6 5 5 6 8 11 12 14 12 21 29 35 39 55 44 42 34 40 38 39 49 52 48 47 46 43 41 42 41 40 38 35 34 32 36 31
21 21 23 23 23 21 22 21 21 20 19 19 20 18 15 11 8 6 7 10 9 9 10 13 13 13 10 13 22 28 37 49 52 46 47 37 39 37 39 43 47 47 48 45 42 42 41 44 45 43 37 35 36 36
24 23 22 23 24 23 22 23 22 21 20 19 21 21 18 14 11 8 6 7 10 10 11 13 13 10 11 9 15 27 31 35 43 53 49 38 22 46 39 36 40 44 46 45 45 44 43 37 38 37 44 46 43 39
19 23 25 25 25 25 23 23 24 22 21 19 18 20 20 17 13 10 8 7 8 9 10 12 9 8 8 8 8 11 23 29 34 40 55 51 33 36 38 32 39 50 45 45 46 48 53 53 44 43 44 43 42 39
18 20 24 26 26 26 24 23 24 23 22 20 18 17 18 17 14 11 10 8 8 8 7 7 5 5 8 3 7 6 9 11 17 22 26 30 25 23 28 37 40 38 45 50 49 50 52 50 54 49 49 50 42 41
21 18 20 26 27 26 26 24 22 22 21 19 18 17 17 16 14 12 10 9 8 6 6 6 7 9 11 6 10 8 9 12 16 16 18 20 23 26 32 34 36 41 43 44 45 45 51 55 54 55 54 53 52 49
24 21 18 21 26 26 27 26 22 20 20 20 19 17 16 15 13 11 10 8 7 6 6 6 5 6 8 7 7 7 7 10 10 16 18 20 20 26 31 33 37 39 42 45 48 48 50 51 51 48 45 44 43 37
20 25 21 20 24 28 26 26 26 21 18 18 17 16 16 13 11 11 10 8 9 7 6 6 4 5 6 5 6 8 9 10 12 10 10 14 16 20 20 25 32 36 39 40 42 44 46 48 47 50 51 50 45 44
20 22 21 21 23 26 28 25 26 23 19 18 18 16 15 14 12 11 10 9 8 7 9 11 3 5 4 2 6 6 9 10 10 9 9 11 15 17 23 25 27 31 32 31 34 36 36 33 36 38 41 41 45 43
23 25 22 19 22 24 28 26 26 25 21 19 18 18 16 15 13 12 9 5 3 3 7 8 5 1 1 4 6 5 7 10 12 11 6 3 3 7 13 12 12 17 20 25 29 27 27 23 25 27 32 27 27 28
28 27 24 20 21 24 27 27 27 26 22 19 19 17 15 15 13 10 9 6 5 6 6 5 4 6 3 3 3 4 5 7 8 4 6 6 4 5 6 9 11 13 13 13 19 25 19 16 14 15 19 23 33 15
30 26 23 21 21 24 27 27 27 27 23 21 19 17 16 14 12 10 8 7 5 5 5 4 5 4 4 4 5 5 4 5 4 7 3 6 6 7 9 9 7 10 10 10 12 19 15 18 12 22 17 15 13 17
27 24 25 23 24 25 28 28 29 27 23 21 17 15 16 13 10 10 10 8 5 2 4 5 2 6 6 6 8 3 2 4 5 2 4 3 4 3 2 9 10 10 15 20 17 18 19 17 15 12 13 15 15 17
28 23 21 25 27 27 29 28 28 27 23 20 16 16 14 13 11 10 9 6 3 2 0 3 9 8 7 7 4 1 4 4 1 1 2 3 2 1 1 6 10 16 20 20 16 18 18 17 17 16 17 18 18 19
23 18 22 27 28 28 29 28 28 25 20 16 16 14 12 12 7 8 7 5 3 2 4 4 8 11 10 6 2 2 1 3 2 2 1 0 2 3 5 9 8 12 14 22 24 22 21 19 16 17 18 19 19 17
21 22 26 29 29 29 30 29 27 23 20 18 16 13 11 8 10 8 5 4 3 3 3 2 3 8 7 6 3 4 3 2 2 2 5 3 3 4 10 4 4 9 12 13 24 23 19 19 19 18 16 15 15 16
27 25 27 29 30 30 30 28 24 23 22 18 15 12 13 12 7 6 4 2 0 2 2 1 4 7 9 9 10 9 6 3 4 7 6 9 5 6 8 11 9 8 9 9 11 11 11 11 10 11 11 11 10 10
26 27 30 30 31 30 28 27 25 24 20 15 15 14 11 8 6 7 4 0 2 6 7 12 12 13 13 12 14 7 7 7 7 5 8 7 8 13 13 12 10 9 9 9 7 5 5 6 6 6 8 10 10 11
27 30 31 31 29 29 29 28 25 21 18 17 16 13 12 10 7 8 11 14 18 18 15 15 18 15 13 11 12 11 11 12 12 14 16 18 17 17 16 16 15 13 13 14 13 12 12 12 14 14 13 12 11 10
30 30 30 30 30 29 28 24 22 21 20 19 17 14 12 13 14 16 16 15 17 17 15 17 18 15 13 11 10 15 17 18 14 17 22 24 25 25 24 22 21 20 19 16 15 14 12 10 9 7 6 6 5 2
31 31 31 30 28 26 24 23 23 22 21 19 19 21 20 23 24 28 26 23 21 20 23 23 23 23 23 22 20 19 18 20 20 20 18 19 21 19 18 17 16 14 12 12 11 10 10 9 7 5 1 2 6 10
31 30 28 28 26 24 24 24 22 20 18 19 24 23 24 27 32 29 23 24 22 20 23 24 25 21 20 21 22 23 22 19 16 14 14 15 16 16 15 15 15 13 11 9 7 4 2 2 4 7 9 11 14 18
30 28 27 25 25 25 23 21 20 19 19 26 27 27 27 25 27 27 25 23 25 24 23 25 24 23 21 21 21 20 20 21 20 18 16 16 16 14 12 11 9 8 6 4 3 4 6 8 10 13 15 18 19 20
28 27 24 23 20 20 19 19 20 22 25 28 26 25 26 26 26 24 21 22 20 21 22 20 19 19 17 16 16 15 14 14 14 12 12 11 9 7 5 3 2 2 3 5 7 9 11 12 12 11 11 12 15 18
25 24 22 20 19 19 18 17 17 18 23 24 24 23 22 20 18 17 17 16 15 14 14 15 14 14 13 13 12 11 11 10 9 7 4 2 1 1 2 4 6 8 9 10 9 6 7 10 12 12 13 14 16 18
24 24 23 23 21 17 16 18 21 25 24 24 23 22 19 17 16 16 16 17 15 15 15 14 12 11 10 9 8 7 5 3 2 1 2 3 5 6 7 8 9 9 5 3 5 7 7 8 10 12 15 18 21 25
21 22 23 21 19 23 25 26 25 23 20 18 16 13 11 10 11 14 15 11 11 12 11 9 8 7 6 4 2 0 2 4 5 7 9 10 10 10 9 10 8 5 5 7 7 8 9 11 14 17 20 23 26 30
16 17 19 18 17 19 22 21 21 19 18 16 14 13 11 12 11 10 8 8 9 6 4 3 3 2 3 5 9 10 11 12 12 13 13 13 12 11 10 8 4 3 3 5 8 10 14 17 20 22 24 27 31 33
14 13 14 14 12 12 15 16 16 15 14 13 11 10 8 7 6 6 5 5 6 5 5 6 8 10 10 11 12 14 15 15 15 16 15 14 12 9 5 2 1 3 5 8 12 15 18 21 23 26 28 30 33 36
Wind_Direction
252 252 244 239 234 229 236 238 234 236 228 226 219 214 208 195 204 216 229 246 243 242 241 239 239 238 235 227 221 222 220 230 233 235 238 234 230 228 226 228 225 225 232 240 242 243 241 237 232 230 235 239 243 249
249 247 245 238 235 231 233 235 234 232 226 220 218 216 215 210 203 210 221 233 243 245 248 247 245 242 238 233 226 224 222 220 229 234 234 236 235 233 227 225 228 231 230 235 239 239 238 234 232 238 237 237 234 238
243 240 241 238 234 232 227 228 232 229 224 215 216 215 212 208 204 194 178 225 252 276 278 255 253 251 249 242 229 224 225 224 225 227 234 235 233 232 234 226 228 229 230 232 237 241 242 240 242 242 236 245 249 260
238 235 234 237 233 226 223 224 228 227 225 214 212 213 215 212 211 209 197 305 319 293 288 275 292 289 249 238 233 224 221 208 224 222 226 235 233 231 231 232 230 232 234 232 233 239 243 246 246 246 248 253 261 266
240 233 230 232 233 225 222 223 222 224 225 219 213 208 210 215 219 225 236 264 299 318 330 307 305 296 275 234 229 223 215 210 197 202 219 223 226 228 229 231 230 230 235 234 233 237 240 242 245 248 247 243 247 252
239 232 227 225 230 227 222 219 220 220 222 221 218 213 209 215 223 239 250 257 272 287 309 317 308 293 293 255 235 220 214 221 217 215 220 231 235 226 230 228 232 233 233 236 236 238 242 245 245 247 246 254 249 255
234 228 222 223 223 227 222 216 215 216 218 221 220 220 216 218 226 240 267 277 271 275 293 310 307 272 267 271 242 227 225 224 225 221 220 212 201 207 225 224 226 228 231 232 233 237 234 240 246 249 254 256 256 269
236 227 218 218 218 220 222 217 214 214 218 222 222 221 221 224 231 245 263 287 281 273 290 308 294 257 258 260 272 245 226 226 233 226 223 228 227 208 227 230 234 228 225 229 232 233 236 245 251 253 250 249 256 261
235 228 218 214 214 215 216 218 218 218 220 223 225 223 221 223 230 243 259 283 282 269 284 304 290 245 222 263 264 238 224 209 230 242 254 249 223 212 220 225 233 234 229 230 232 235 236 241 245 250 250 251 259 268
229 225 221 215 212 210 210 211 213 217 220 219 218 221 220 222 228 239 255 271 268 252 276 288 251 224 248 259 239 235 203 199 198 214 223 239 240 246 244 242 238 234 238 237 234 238 243 243 243 246 249 254 265 266
222 218 220 216 209 205 206 205 206 206 207 207 210 215 216 218 225 235 250 259 243 242 272 273 250 230 225 228 232 237 218 204 198 215 217 226 232 236 237 239 244 244 243 245 243 241 241 243 245 248 251 259 255 263
220 214 218 214 206 201 201 202 203 200 199 198 199 204 207 210 217 226 235 234 227 241 245 195 178 196 193 241 250 232 220 200 202 208 202 206 228 238 254 256 252 252 248 243 244 243 241 243 246 246 250 255 257 262
206 198 203 203 197 194 195 195 194 193 192 192 193 193 197 203 210 214 219 219 227 253 215 188 176 198 245 179 138 141 162 174 172 180 199 211 225 233 235 239 244 245 243 244 240 236 237 236 229 238 249 250 254 258
192 188 189 187 187 186 186 186 186 184 184 186 188 190 192 195 198 204 210 217 271 230 180 190 197 326 233 163 163 133 149 160 152 145 151 176 175 176 198 220 238 230 236 236 235 234 237 224 221 231 241 244 242 246
184 185 188 186 181 181 180 180 180 179 179 181 184 185 186 188 190 195 188 198 184 175 194 216 250 279 243 199 191 169 181 177 179 197 252 212 221 269 246 239 241 231 233 226 227 226 220 201 198 223 216 229 226 238
183 184 187 186 178 176 175 177 176 176 177 179 181 180 179 182 181 180 190 187 183 194 208 261 296 248 215 194 169 142 162 203 242 315 330 209 228 264 284 229 225 208 213 182 192 185 193 202 201 202 203 200 216 239
178 184 184 179 175 171 171 173 174 174 174 178 175 169 165 170 172 174 180 183 182 211 284 289 205 154 170 149 129 137 202 271 293 264 262 266 283 225 230 214 205 212 183 158 166 183 185 188 190 189 208 223 242 252
159 160 164 169 168 166 169 170 171 173 173 170 165 154 151 165 172 179 171 176 198 277 202 140 173 148 138 128 102 316 337 318 191 302 326 301 231 274 262 206 182 197 211 178 181 183 188 187 199 210 231 242 249 262
152 155 159 160 162 163 166 166 167 166 164 156 145 145 156 158 166 166 162 167 157 139 161 95 136 154 151 152 108 93 145 149 136 113 80 171 250 243 176 161 186 173 175 194 199 202 214 224 230 239 247 256 258 245
145 148 150 154 157 160 161 161 160 158 148 140 145 142 152 168 157 160 168 156 156 167 180 181 177 187 197 174 178 145 117 120 120 90 78 74 109 164 184 186 161 177 185 189 201 218 222 228 236 242 244 244 240 240
140 142 146 150 152 152 154 153 150 145 143 142 139 146 142 146 155 160 164 150 151 311 300 253 196 194 183 160 148 141 103 97 96 42 91 90 99 169 144 150 147 125 146 166 189 202 206 208 209 226 239 226 210 213
133 136 140 142 145 145 144 142 140 141 139 136 133 130 130 132 129 116 119 84 94 115 118 118 132 148 141 135 145 117 98 83 102 118 100 61 66 106 136 138 131 130 137 140 144 170 179 192 194 183 181 183 182 180
127 132 136 136 136 137 137 138 140 134 128 129 128 126 125 123 120 108 100 104 112 109 104 102 125 121 118 124 105 105 106 98 90 103 89 87 103 109 116 122 120 114 115 116 111 112 122 126 122 120 121 123 135 151
126 127 127 129 132 136 136 131 128 127 129 125 117 113 117 113 101 107 110 110 115 111 103 108 112 111 117 126 119 117 108 97 103 107 103 98 97 98 98 99 100 103 105 105 103 101 101 101 100 102 111 120 128 154
119 120 124 129 131 127 125 125 127 127 126 116 114 112 108 112 112 100 106 111 115 114 114 99 94 91 96 104 108 107 107 111 113 107 103 108 102 95 93 93 96 101 101 100 97 97 104 104 100 98 106 261 267 275
114 117 120 119 119 121 122 122 124 122 122 123 118 112 112 112 101 88 81 94 101 111 116 109 107 107 103 94 99 102 104 105 102 99 100 106 104 96 92 90 91 91 90 86 81 79 60 346 318 309 305 303 304 305
109 110 112 114 116 118 122 122 121 124 128 130 122 116 113 111 103 104 104 99 99 100 114 110 114 112 109 104 101 101 100 101 99 95 96 99 100 95 90 90 90 87 78 56 18 351 330 317 310 307 307 306 305 304
105 105 106 108 111 117 119 121 124 127 130 132 124 121 121 119 112 110 115 111 111 114 112 117 117 113 102 102 101 100 98 98 103 109 110 106 104 105 104 87 39 354 345 342 334 326 322 320 319 321 322 323 324 325
103 103 104 108 112 116 117 119 122 132 134 137 136 135 133 128 118 114 115 113 107 115 121 120 117 114 112 116 114 109 106 107 114 116 111 90 65 27 349 338 334 337 341 339 341 352 352 340 338 342 344 343 342 344
107 105 107 107 106 112 114 120 129 131 129 127 131 133 127 122 113 114 122 121 123 124 125 122 124 125 124 123 123 121 113 105 90 70 13 333 323 327 330 330 338 341 359 5 336 338 349 353 350 355 355 351 347 344
103 97 96 99 109 114 117 123 125 127 127 126 126 119 120 124 135 140 137 131 135 137 135 139 140 134 134 135 117 24 323 316 315 315 314 311 308 306 313 328 342 357 345 330 346 355 354 353 353 351 344 342 343 342
111 100 95 97 102 112 115 119 123 126 126 124 125 126 127 126 130 136 149 164 175 182 187 198 200 224 288 303 305 305 302 298 296 296 294 290 292 304 315 319 317 317 312 336 347 354 351 346 342 342 344 345 342 340
129 124 115 109 113 119 120 123 127 129 128 125 124 122 127 139 143 148 162 191 207 218 241 261 280 293 298 297 296 293 290 290 288 283 282 287 293 295 291 285 313 317 340 352 350 349 345 344 345 346 345 341 340 340